カタログに戻る

USA 40 R/B DEB

LostHEO
NORAD 23373·DEBRIS·🇺🇸 United States

打ち上げ Aug 8, 1989 から Cape Canaveral Space Force Station

Loading…

次のパス (今後24時間)

TLE

古いSource: Space-Track

元期: May 27, 2026, 00:09 UTC

1 23373U 89061AV  26147.00650729  .00005579  00000-0  67025-2 0  9999
2 23373  57.0008 272.3298 3014615 207.2858 133.1448  8.74685092229618

AllMySatでUSA 40 R/B DEBをリアルタイム追跡

Download on the App Store